Change the Weather History Date:

Saturday, April 20, 2013

  Actual Average (KGEV) Record (KGEV)
Temperature  
Mean Temperature 41 °F -  
Max Temperature 50 °F 66 °F 80 °F (1968)
Min Temperature 32 °F 39 °F 23 °F (1988)
Degree Days  
Heating Degree Days 24    
Moisture  
Dew Point 26 °F    
Average Humidity 57    
Maximum Humidity 94    
Minimum Humidity 35    
Precipitation  
Precipitation 0.00 in - - ()
Sea Level Pressure  
Sea Level Pressure 30.10 in    
Wind  
Wind Speed 20 mph (WNW)    
Max Wind Speed 33 mph    
Max Gust Speed 48 mph    
Visibility 10 miles    
Events      
Averages and records for this station are not official NWS values.
T = Trace of Precipitation, MM = Missing Value Source: NWS Daily Summary

Daily Weather History Graph

Daily Weather History Graph

Search for Another Location

Airport or City:

Trip Planner

Search our weather history database for the weather conditions in past years. The results will help you decide how hot, cold, wet, or windy it might be!

Date:

Astronomy

Apr. 20, 2013 Rise Set
Actual Time 6:46 AM EDT 8:04 PM EDT
Civil Twilight 6:19 AM EDT 8:31 PM EDT
Nautical Twilight 5:47 AM EDT 9:03 PM EDT
Astronomical Twilight 5:14 AM EDT 9:37 PM EDT
Moon 2:56 PM EDT (4/20) 3:25 AM EDT (4/20)
Length of Visible Light 14h 12m
Length of Day
13h 18m
Waxing Gibbous, 71% of the Moon is Illuminated
Apr 20
Waxing Gibbous
Apr 25
Full
May 2
Last Quarter
May 9
New
May 18
First Quarter

Hourly Weather History & Observations

Time (EDT) Temp. Windchill Dew Point Humidity Pressure Visibility Wind Dir Wind Speed Gust Speed Precip Events Conditions
12:15 AM 40.1 °F 28.1 °F 32.4 °F 74% 29.89 in 10.0 mi NW 33.4 mph 44.9 mph N/A   Mostly Cloudy
12:35 AM 39.2 °F 27.0 °F 30.2 °F 70% 29.91 in 10.0 mi WNW 32.2 mph 48.3 mph N/A   Scattered Clouds
12:55 AM 38.5 °F 26.6 °F 27.9 °F 66% 29.92 in 10.0 mi WNW 28.8 mph 42.6 mph N/A   Clear
1:15 AM 38.3 °F 25.8 °F 28.2 °F 67% 29.91 in 10.0 mi NW 32.2 mph 44.9 mph N/A   Clear
1:35 AM 37.8 °F 26.3 °F 28.9 °F 71% 29.91 in 10.0 mi WNW 25.3 mph 46.0 mph N/A   Clear
1:55 AM 37.8 °F 25.2 °F 29.3 °F 72% 29.91 in 10.0 mi WNW 31.1 mph 39.1 mph N/A   Scattered Clouds
2:15 AM 37.6 °F 25.4 °F 29.7 °F 73% 29.91 in 10.0 mi WNW 28.8 mph 40.3 mph N/A   Scattered Clouds
2:35 AM 37.4 °F 27.2 °F 29.3 °F 73% 29.92 in 10.0 mi WNW 19.6 mph 40.3 mph N/A   Scattered Clouds
2:55 AM 37.0 °F 25.9 °F 28.2 °F 70% 29.91 in 10.0 mi WNW 23.0 mph 40.3 mph N/A   Scattered Clouds
3:15 AM 36.7 °F 24.7 °F 28.2 °F 71% 29.92 in 10.0 mi WNW 26.5 mph 41.4 mph N/A   Scattered Clouds
3:35 AM 36.5 °F 25.7 °F 26.8 °F 68% 29.93 in 10.0 mi WNW 20.7 mph 40.3 mph N/A   Scattered Clouds
3:55 AM 35.8 °F 25.1 °F 26.2 °F 68% 29.93 in 10.0 mi WNW 19.6 mph 35.7 mph N/A   Clear
4:15 AM 35.6 °F 23.7 °F 25.7 °F 67% 29.94 in 10.0 mi WNW 24.2 mph 38.0 mph N/A   Clear
4:35 AM 35.1 °F 23.8 °F 26.1 °F 70% 29.95 in 10.0 mi NW 20.7 mph 34.5 mph N/A   Clear
4:55 AM 34.7 °F 25.5 °F 25.5 °F 69% 29.96 in 10.0 mi NW 13.8 mph 35.7 mph N/A   Clear
5:15 AM 34.2 °F 23.6 °F 25.9 °F 72% 29.97 in 10.0 mi WNW 17.3 mph 27.6 mph N/A   Clear
5:35 AM 33.8 °F 23.9 °F 25.5 °F 72% 29.98 in 10.0 mi NW 15.0 mph 23.0 mph N/A   Clear
5:55 AM 33.4 °F 21.1 °F 24.8 °F 71% 29.99 in 10.0 mi NW 23.0 mph 29.9 mph N/A   Clear
6:15 AM 33.1 °F 20.6 °F 23.5 °F 68% 29.99 in 10.0 mi NW 23.0 mph 29.9 mph N/A   Clear
6:55 AM 32.9 °F 21.3 °F 22.1 °F 65% 30.02 in 10.0 mi NW 19.6 mph 32.2 mph N/A   Clear
7:15 AM 32.9 °F 24.1 °F 22.1 °F 65% 30.03 in 10.0 mi NW 11.5 mph 26.5 mph N/A   Clear
7:35 AM 32.9 °F 21.3 °F 22.8 °F 66% 30.03 in 10.0 mi NW 19.6 mph 28.8 mph N/A   Clear
7:55 AM 33.3 °F 23.7 °F 23.7 °F 68% 30.05 in 10.0 mi NW 13.8 mph 20.7 mph N/A   Clear
8:15 AM 33.8 °F 22.8 °F 23.9 °F 67% 30.06 in 10.0 mi NW 18.4 mph 25.3 mph N/A   Clear
8:35 AM 33.8 °F 23.9 °F 23.5 °F 66% 30.07 in 10.0 mi NW 15.0 mph 27.6 mph N/A   Clear
8:55 AM 34.5 °F 24.1 °F 23.7 °F 65% 30.08 in 10.0 mi NW 17.3 mph 32.2 mph N/A   Clear
9:15 AM 35.4 °F 23.5 °F 23.7 °F 62% 30.09 in 10.0 mi NW 24.2 mph 34.5 mph N/A   Clear
9:35 AM 35.8 °F 24.8 °F 23.0 °F 60% 30.10 in 10.0 mi WNW 20.7 mph 34.5 mph N/A   Clear
9:55 AM 37.4 °F 26.9 °F 23.0 °F 56% 30.10 in 10.0 mi NW 20.7 mph 34.5 mph N/A   Clear
10:15 AM 38.3 °F 27.8 °F 23.5 °F 55% 30.11 in 10.0 mi WNW 21.9 mph 33.4 mph N/A   Clear
10:35 AM 39.2 °F 29.6 °F 23.7 °F 54% 30.11 in 10.0 mi WNW 19.6 mph 31.1 mph N/A   Clear
10:55 AM 39.9 °F 30.0 °F 22.5 °F 50% 30.12 in 10.0 mi WNW 21.9 mph 31.1 mph N/A   Clear
11:15 AM 40.8 °F 32.6 °F 22.8 °F 49% 30.13 in 10.0 mi NW 16.1 mph 33.4 mph N/A   Clear
11:35 AM 42.3 °F 34.1 °F 24.8 °F 50% 30.14 in 10.0 mi West 17.3 mph 23.0 mph N/A   Clear
11:55 AM 43.0 °F 36.0 °F 24.6 °F 48% 30.14 in 10.0 mi WNW 13.8 mph 24.2 mph N/A   Clear
12:15 PM 43.0 °F 34.8 °F 23.9 °F 47% 30.14 in 10.0 mi NW 18.4 mph 25.3 mph N/A   Clear
12:55 PM 44.4 °F 37.2 °F 24.3 °F 45% 30.14 in 10.0 mi NW 16.1 mph 23.0 mph N/A   Clear
1:15 PM 45.1 °F 37.9 °F 24.1 °F 44% 30.13 in 10.0 mi West 17.3 mph 25.3 mph N/A   Clear
1:35 PM 46.0 °F 39.6 °F 24.8 °F 43% 30.14 in 10.0 mi WNW 15.0 mph 26.5 mph N/A   Clear
1:55 PM 46.9 °F - 25.2 °F 43% 30.14 in 10.0 mi WNW 16.1 mph 24.2 mph N/A   Clear
2:15 PM 46.9 °F - 24.3 °F 41% 30.14 in 10.0 mi WNW 15.0 mph 25.3 mph N/A   Clear
2:35 PM 47.7 °F - 23.7 °F 39% 30.14 in 10.0 mi NW 10.4 mph 21.9 mph N/A   Clear
2:55 PM 48.2 °F - 23.5 °F 38% 30.14 in 10.0 mi WNW 18.4 mph 24.2 mph N/A   Clear
3:15 PM 48.7 °F - 24.4 °F 39% 30.15 in 10.0 mi WNW 18.4 mph 24.2 mph N/A   Clear
3:35 PM 48.7 °F - 24.3 °F 38% 30.14 in 10.0 mi West 12.7 mph 21.9 mph N/A   Clear
3:55 PM 50.0 °F - 24.3 °F 37% 30.14 in 10.0 mi NW 18.4 mph 24.2 mph N/A   Clear
4:15 PM 50.5 °F - 24.8 °F 37% 30.14 in 10.0 mi WNW 15.0 mph 19.6 mph N/A   Clear
4:35 PM 50.0 °F - 23.5 °F 36% 30.15 in 10.0 mi WNW 17.3 mph 23.0 mph N/A   Clear
4:55 PM 49.5 °F - 23.4 °F 36% 30.16 in 10.0 mi NW 15.0 mph 21.9 mph N/A   Clear
5:15 PM 50.0 °F - 23.5 °F 36% 30.16 in 10.0 mi West 12.7 mph 21.9 mph N/A   Clear
5:35 PM 49.6 °F - 23.4 °F 36% 30.16 in 10.0 mi NW 16.1 mph 21.9 mph N/A   Clear
5:55 PM 50.0 °F - 23.5 °F 36% 30.17 in 10.0 mi WNW 11.5 mph 18.4 mph N/A   Clear
6:15 PM 50.0 °F - 23.4 °F 35% 30.17 in 10.0 mi WNW 8.1 mph 18.4 mph N/A   Clear
6:35 PM 50.0 °F - 23.5 °F 36% 30.17 in 10.0 mi WNW 16.1 mph 19.6 mph N/A   Clear
6:55 PM 49.5 °F - 23.2 °F 36% 30.18 in 10.0 mi NW 11.5 mph - N/A   Clear
7:15 PM 49.3 °F - 23.0 °F 36% 30.19 in 10.0 mi NW 10.4 mph 19.6 mph N/A   Clear
7:35 PM 48.6 °F - 23.4 °F 37% 30.19 in 10.0 mi WNW 9.2 mph - N/A   Clear
7:55 PM 47.8 °F - 23.5 °F 39% 30.20 in 10.0 mi WNW 9.2 mph - N/A   Clear
8:15 PM 46.9 °F - 24.3 °F 41% 30.21 in 10.0 mi WNW 4.6 mph - N/A   Clear
8:35 PM 46.0 °F 44.8 °F 24.8 °F 43% 30.22 in 10.0 mi West 3.5 mph - N/A   Clear
8:55 PM 45.5 °F 44.2 °F 25.5 °F 46% 30.23 in 10.0 mi WNW 3.5 mph - N/A   Clear
9:15 PM 40.8 °F - 29.8 °F 65% 30.25 in 10.0 mi Calm Calm - N/A   Clear
9:35 PM 39.6 °F - 30.4 °F 70% 30.27 in 10.0 mi Calm Calm - N/A   Clear
9:55 PM 37.8 °F - 30.7 °F 76% 30.27 in 10.0 mi Calm Calm - N/A   Clear
10:15 PM 37.2 °F - 30.6 °F 77% 30.27 in 10.0 mi Calm Calm - N/A   Clear
10:35 PM 35.8 °F - 30.7 °F 82% 30.28 in 10.0 mi Calm Calm - N/A   Clear
10:55 PM 36.5 °F - 30.7 °F 80% 30.28 in 10.0 mi Calm Calm - N/A   Clear
11:15 PM 34.7 °F - 30.7 °F 85% 30.29 in 10.0 mi Calm Calm - N/A   Clear
11:35 PM 34.0 °F - 30.7 °F 88% 30.29 in 10.0 mi Calm Calm - N/A   Clear
11:55 PM 33.1 °F - 31.6 °F 94% 30.29 in 10.0 mi Calm Calm - N/A   Clear